Ottawa International, Ontario

11:23 AM EDT on May 23, 2017 (GMT -0400)
Ottawa International Airport

Weather History for CYOW - November, 2013

Change the Weather History Date:

Monday, November 18, 2013

  Actual Average Record
Temperature  
Mean Temperature 42 °F -  
Max Temperature 51 °F 31 °F 57 °F (2013)
Min Temperature 32 °F 17 °F 15 °F (2005)
Degree Days  
Heating Degree Days 24    
Moisture  
Dew Point 37 °F    
Average Humidity 73    
Maximum Humidity 94    
Minimum Humidity 40    
Precipitation  
Precipitation 0.16 in 0.11 in - ()
Sea Level Pressure  
Sea Level Pressure 29.44 in    
Wind  
Wind Speed 19 mph ()    
Max Wind Speed 33 mph    
Max Gust Speed 47 mph    
Visibility 13.4 miles    
Events Rain , Snow    
Averages and records for this station are not official NWS values.
T = Trace of Precipitation, MM = Missing Value Source: Averaged Metar Reports

Daily Weather History Graph

Daily Weather History Graph

Search for Another Location

Airport or City:

Trip Planner

Search our weather history database for the weather conditions in past years. The results will help you decide how hot, cold, wet, or windy it might be!

Date:

Astronomy

Nov. 18, 2013 Rise Set
Actual Time 7:05 AM EST 4:29 PM EST
Civil Twilight 6:33 AM EST 5:02 PM EST
Nautical Twilight 5:57 AM EST 5:38 PM EST
Astronomical Twilight 5:22 AM EST 6:13 PM EST
Moon 5:29 PM EST (11/18) 7:52 AM EST (11/18)
Length of Visible Light 10h 28m
Length of Day
9h 24m
Full, 99% of the Moon is Illuminated
Nov 18
Full
Nov 25
Last Quarter
Dec 2
New
Dec 9
First Quarter
Dec 17
Full

Hourly Weather History & Observations

Time (EST) Temp. Windchill Dew Point Humidity Pressure Visibility Wind Dir Wind Speed Gust Speed Precip Events Conditions
12:00 AM 55.4 °F - 51.8 °F 88% 29.39 in 15.0 mi ESE 12.7 mph - N/A   Overcast
12:45 AM 55.4 °F - 51.8 °F 88% 29.33 in 12.0 mi SE 13.8 mph 23.0 mph N/A Rain Light Rain
1:00 AM 56 °F - 54 °F 89% 29.32 in 7 mi SSE 16.1 mph - - Rain Light Rain
1:00 AM 55.4 °F - 53.6 °F 94% 29.32 in 8.0 mi SSE 16.1 mph 23.0 mph N/A Rain Light Rain
2:00 AM 57.2 °F - 53.6 °F 88% 29.30 in 7.0 mi SSW 28.8 mph 41.4 mph N/A Rain Light Rain
3:00 AM 53.6 °F - 48.2 °F 82% 29.27 in 15.0 mi South 19.6 mph 28.8 mph N/A Rain Light Rain
3:26 AM 53.6 °F - 46.4 °F 77% 29.25 in 15.0 mi South 18.4 mph 28.8 mph N/A   Overcast
4:00 AM 53.6 °F - 46.4 °F 77% 29.25 in 15.0 mi SSW 23.0 mph 34.5 mph N/A   Overcast
5:00 AM 51.8 °F - 41.0 °F 67% 29.25 in 15.0 mi SSW 33.4 mph 47.2 mph N/A   Mostly Cloudy
6:00 AM 50.0 °F - 41.0 °F 71% 29.28 in 15.0 mi SW 29.9 mph 41.4 mph N/A   Mostly Cloudy
7:00 AM 49 °F - 40 °F 62% 29.31 in 15 mi SW 24.2 mph - -   Partly Cloudy
7:00 AM 48.2 °F - 39.2 °F 71% 29.31 in 15.0 mi SW 26.5 mph 38.0 mph N/A   Mostly Cloudy
8:00 AM 48.2 °F - 41.0 °F 76% 29.33 in 15.0 mi SW 18.4 mph 35.7 mph N/A   Mostly Cloudy
9:00 AM 50.0 °F - 41.0 °F 71% 29.36 in 15.0 mi SW 24.2 mph 41.4 mph N/A   Mostly Cloudy
10:00 AM 50.0 °F - 37.4 °F 62% 29.38 in 15.0 mi WSW 25.3 mph 40.3 mph N/A   Scattered Clouds
10:27 AM 48.2 °F - 37.4 °F 66% 29.39 in 15.0 mi WSW 29.9 mph 40.3 mph N/A Rain Light Rain
10:54 AM 46.4 °F 38.3 °F 41.0 °F 81% 29.41 in 15.0 mi WSW 23.0 mph 35.7 mph N/A   Mostly Cloudy
11:00 AM 46.4 °F 38.5 °F 39.2 °F 76% 29.40 in 15.0 mi WSW 21.9 mph 36.8 mph N/A   Mostly Cloudy
12:00 PM 48.2 °F - 33.8 °F 58% 29.40 in 15.0 mi SW 24.2 mph 38.0 mph N/A   Mostly Cloudy
1:00 PM 48 °F - 31 °F 40% 29.40 in 15 mi SW 24.2 mph - -   Partly Cloudy
1:00 PM 48.2 °F - 32.0 °F 54% 29.40 in 15.0 mi SW 27.6 mph 36.8 mph N/A   Mostly Cloudy
2:00 PM 44.6 °F 35.9 °F 37.4 °F 76% 29.42 in 15.0 mi SW 23.0 mph 36.8 mph N/A   Mostly Cloudy
2:35 PM 46.4 °F 38.1 °F 33.8 °F 62% 29.43 in 15.0 mi SW 24.2 mph 36.8 mph N/A Rain Light Rain
3:00 PM 46.4 °F 39.2 °F 33.8 °F 62% 29.45 in 15.0 mi WSW 18.4 mph 32.2 mph N/A Rain Light Rain
3:43 PM 41.0 °F 31.9 °F 35.6 °F 81% 29.47 in 15.0 mi SW 19.6 mph 40.3 mph N/A   Mostly Cloudy
4:00 PM 41.0 °F 31.9 °F 35.6 °F 81% 29.47 in 15.0 mi SW 19.6 mph 29.9 mph N/A   Mostly Cloudy
5:00 PM 41.0 °F 31.1 °F 32.0 °F 70% 29.50 in 15.0 mi SW 23.0 mph 39.1 mph N/A   Scattered Clouds
6:00 PM 39.2 °F 29.8 °F 32.0 °F 75% 29.53 in 15.0 mi WSW 18.4 mph 27.6 mph N/A   Mostly Cloudy
6:27 PM 37.4 °F 27.5 °F 32.0 °F 81% 29.55 in 15.0 mi West 18.4 mph 31.1 mph N/A Rain Rain
6:52 PM 37.4 °F 29.8 °F 32.0 °F 81% 29.55 in 15.0 mi WSW 11.5 mph 19.6 mph N/A   Mostly Cloudy
7:00 PM 38 °F - 31 °F 68% 29.55 in 15 mi WSW 15.0 mph - - Rain Light Rain
7:00 PM 37.4 °F 27.8 °F 30.2 °F 75% 29.55 in 15.0 mi WSW 17.3 mph 25.3 mph N/A   Mostly Cloudy
8:00 PM 39.2 °F 28.7 °F 28.4 °F 65% 29.57 in 15.0 mi SW 23.0 mph 33.4 mph N/A   Mostly Cloudy
8:11 PM 39.2 °F 29.8 °F 28.4 °F 65% 29.59 in 10.0 mi WSW 18.4 mph 28.8 mph N/A   Unknown
8:17 PM 35.6 °F 22.5 °F 30.2 °F 81% 29.60 in 10.0 mi WSW 29.9 mph 38.0 mph N/A Snow Light Snow
9:00 PM 35.6 °F 23.4 °F 28.4 °F 75% 29.60 in 12.0 mi WSW 25.3 mph - N/A   Overcast
9:14 PM 35.6 °F 24.0 °F 28.4 °F 75% 29.62 in 5.0 mi West 23.0 mph 38.0 mph N/A Snow Light Snow
9:37 PM 32.0 °F 20.1 °F 26.6 °F 80% 29.63 in 10.0 mi West 19.6 mph 31.1 mph N/A Snow Light Snow
10:00 PM 32.0 °F 20.5 °F 26.6 °F 80% 29.64 in 10.0 mi WNW 18.4 mph 29.9 mph N/A   Overcast
11:00 PM 32.0 °F 18.9 °F 19.4 °F 60% 29.68 in 12.0 mi West 24.2 mph 29.9 mph N/A   Mostly Cloudy